Time,TemperatureF,DewpointF,PressureIn,WindDirection,WindDirectionDegrees,WindSpeedMPH,WindSpeedGustMPH,Humidity,HourlyPrecipIn,Conditions,Clouds,dailyrainin,SolarRadiationWatts/m^2,SoftwareType,DateUTC
2013-06-01 00:02:00,41.0,41.0,-100.00,North,350,0.0,2.0,99,0.00,,,0.02,0.000000,,2013-06-01 08:02:00,
2013-06-01 00:11:00,41.0,41.0,-100.00,North,350,0.0,2.0,99,0.00,,,0.02,0.000000,,2013-06-01 08:11:00,
2013-06-01 00:21:00,41.0,41.0,-100.00,North,350,0.0,2.0,99,0.00,,,0.02,0.000000,,2013-06-01 08:21:00,
2013-06-01 00:42:00,39.0,39.0,-100.00,NNW,334,0.0,1.0,99,0.00,,,0.02,0.000000,,2013-06-01 08:42:00,
2013-06-01 00:52:00,39.0,39.0,-100.00,NNW,334,0.0,1.0,99,0.00,,,0.02,0.000000,,2013-06-01 08:52:00,
2013-06-01 01:01:00,39.0,39.0,-100.00,NNW,334,0.0,1.0,99,0.00,,,0.02,0.000000,,2013-06-01 09:01:00,
2013-06-01 01:12:00,39.0,39.0,-100.00,NNW,334,0.0,1.0,99,0.00,,,0.02,0.000000,,2013-06-01 09:12:00,
2013-06-01 01:21:00,39.0,39.0,-100.00,NNW,334,0.0,1.0,99,0.00,,,0.02,0.000000,,2013-06-01 09:21:00,
2013-06-01 01:43:00,39.0,39.0,-100.00,North,357,0.0,1.0,100,-99.99,,,0.01,0.000000,,2013-06-01 09:43:00,
2013-06-01 01:53:00,39.0,39.0,-100.00,North,357,0.0,1.0,100,-99.99,,,0.01,0.000000,,2013-06-01 09:53:00,
2013-06-01 02:02:00,39.0,39.0,-100.00,North,357,0.0,1.0,100,-99.99,,,0.01,0.000000,,2013-06-01 10:02:00,
2013-06-01 02:12:00,39.0,39.0,-100.00,North,357,0.0,1.0,100,-99.99,,,0.01,0.000000,,2013-06-01 10:12:00,
2013-06-01 02:22:00,39.0,39.0,-100.00,North,357,0.0,1.0,100,-99.99,,,0.01,0.000000,,2013-06-01 10:22:00,
2013-06-01 02:42:00,39.0,39.0,-100.00,NNE,30,0.0,0.0,100,0.00,,,0.01,0.000000,,2013-06-01 10:42:00,
2013-06-01 02:52:00,39.0,39.0,-100.00,NNE,30,0.0,0.0,100,0.00,,,0.01,0.000000,,2013-06-01 10:52:00,
2013-06-01 03:02:00,39.0,39.0,-100.00,NNE,30,0.0,0.0,100,0.00,,,0.01,0.000000,,2013-06-01 11:02:00,
2013-06-01 03:11:00,39.0,39.0,-100.00,NNE,30,0.0,0.0,100,0.00,,,0.01,0.000000,,2013-06-01 11:11:00,
2013-06-01 03:21:00,39.0,39.0,-100.00,NNE,30,0.0,0.0,100,0.00,,,0.01,0.000000,,2013-06-01 11:21:00,
2013-06-01 03:42:00,39.0,39.0,-100.00,North,349,0.0,1.0,100,0.01,,,0.02,0.000000,,2013-06-01 11:42:00,
2013-06-01 03:52:00,39.0,39.0,-100.00,North,349,0.0,1.0,100,0.01,,,0.02,0.000000,,2013-06-01 11:52:00,
2013-06-01 04:01:00,39.0,39.0,-100.00,North,349,0.0,1.0,100,0.01,,,0.02,0.000000,,2013-06-01 12:01:00,
2013-06-01 04:11:00,39.0,39.0,-100.00,North,349,0.0,1.0,100,0.01,,,0.02,0.000000,,2013-06-01 12:11:00,
2013-06-01 04:21:00,39.0,39.0,-100.00,North,349,0.0,1.0,100,0.01,,,0.02,0.000000,,2013-06-01 12:21:00,
2013-06-01 04:42:00,39.0,39.0,-100.00,NE,40,1.0,5.0,99,-99.99,,,0.01,0.000000,,2013-06-01 12:42:00,
2013-06-01 04:52:00,39.0,39.0,-100.00,NE,40,1.0,5.0,99,-99.99,,,0.01,0.000000,,2013-06-01 12:52:00,
2013-06-01 05:01:00,39.0,39.0,-100.00,NE,40,1.0,5.0,99,-99.99,,,0.01,0.000000,,2013-06-01 13:01:00,
2013-06-01 05:11:00,39.0,39.0,-100.00,NE,40,1.0,5.0,99,-99.99,,,0.01,0.000000,,2013-06-01 13:11:00,
2013-06-01 05:22:00,39.0,39.0,-100.00,NE,40,1.0,5.0,99,-99.99,,,0.01,0.000000,,2013-06-01 13:22:00,
2013-06-01 05:42:00,39.0,39.0,-100.00,NNE,17,1.0,3.0,99,0.00,,,0.01,5.000000,,2013-06-01 13:42:00,
2013-06-01 05:52:00,39.0,39.0,-100.00,NNE,17,1.0,3.0,99,0.00,,,0.01,5.000000,,2013-06-01 13:52:00,
2013-06-01 06:02:00,39.0,39.0,-100.00,NNE,17,1.0,3.0,99,0.00,,,0.01,5.000000,,2013-06-01 14:02:00,
2013-06-01 06:11:00,39.0,39.0,-100.00,NNE,17,1.0,3.0,99,0.00,,,0.01,5.000000,,2013-06-01 14:11:00,
2013-06-01 06:21:00,39.0,39.0,-100.00,NNE,17,1.0,3.0,99,0.00,,,0.01,5.000000,,2013-06-01 14:21:00,
2013-06-01 06:42:00,39.0,39.0,-100.00,NNE,15,0.0,1.0,99,-99.99,,,0.00,18.000000,,2013-06-01 14:42:00,
2013-06-01 06:52:00,39.0,39.0,-100.00,NNE,15,0.0,1.0,99,-99.99,,,0.00,18.000000,,2013-06-01 14:52:00,
2013-06-01 07:01:00,39.0,39.0,-100.00,NNE,15,0.0,1.0,99,-99.99,,,0.00,18.000000,,2013-06-01 15:01:00,
2013-06-01 07:11:00,39.0,39.0,-100.00,NNE,15,0.0,1.0,99,-99.99,,,0.00,18.000000,,2013-06-01 15:11:00,
2013-06-01 07:21:00,39.0,39.0,-100.00,NNE,15,0.0,1.0,99,-99.99,,,0.00,18.000000,,2013-06-01 15:21:00,
2013-06-01 07:43:00,39.0,39.0,-100.00,NNE,22,0.0,3.0,99,0.00,,,-99.99,40.000000,,2013-06-01 15:43:00,
2013-06-01 07:53:00,39.0,39.0,-100.00,NNE,22,0.0,3.0,99,0.00,,,-99.99,40.000000,,2013-06-01 15:53:00,
2013-06-01 08:03:00,39.0,39.0,-100.00,NNE,22,0.0,3.0,99,0.00,,,-99.99,40.000000,,2013-06-01 16:03:00,
2013-06-01 08:12:00,39.0,39.0,-100.00,NNE,22,0.0,3.0,99,0.00,,,-99.99,40.000000,,2013-06-01 16:12:00,
2013-06-01 08:22:00,39.0,39.0,-100.00,NNE,22,0.0,3.0,99,0.00,,,-99.99,40.000000,,2013-06-01 16:22:00,
2013-06-01 08:42:00,41.0,39.0,-100.00,NE,49,3.0,6.0,91,0.01,,,0.00,84.000000,,2013-06-01 16:42:00,
2013-06-01 08:52:00,41.0,39.0,-100.00,NE,49,3.0,6.0,91,0.01,,,0.00,84.000000,,2013-06-01 16:52:00,
2013-06-01 09:02:00,41.0,39.0,-100.00,NE,49,3.0,6.0,91,0.01,,,0.00,84.000000,,2013-06-01 17:02:00,
2013-06-01 09:11:00,41.0,39.0,-100.00,NE,49,3.0,6.0,91,0.01,,,0.00,84.000000,,2013-06-01 17:11:00,
2013-06-01 09:21:00,41.0,39.0,-100.00,NE,49,3.0,6.0,91,0.01,,,0.00,84.000000,,2013-06-01 17:21:00,
2013-06-01 09:42:00,43.0,41.0,-100.00,ENE,59,3.0,5.0,92,-99.99,,,-99.99,118.000000,,2013-06-01 17:42:00,
2013-06-01 09:52:00,43.0,41.0,-100.00,ENE,59,3.0,5.0,92,-99.99,,,-99.99,118.000000,,2013-06-01 17:52:00,
2013-06-01 10:01:00,43.0,41.0,-100.00,ENE,59,3.0,5.0,92,-99.99,,,-99.99,118.000000,,2013-06-01 18:01:00,
2013-06-01 10:11:00,43.0,41.0,-100.00,ENE,59,3.0,5.0,92,-99.99,,,-99.99,118.000000,,2013-06-01 18:11:00,
2013-06-01 10:21:00,43.0,41.0,-100.00,ENE,59,3.0,5.0,92,-99.99,,,-99.99,118.000000,,2013-06-01 18:21:00,
2013-06-01 10:42:00,43.0,38.0,-100.00,ENE,67,3.0,6.0,82,0.00,,,0.00,175.000000,,2013-06-01 18:42:00,
2013-06-01 10:52:00,43.0,38.0,-100.00,ENE,67,3.0,6.0,82,0.00,,,0.00,175.000000,,2013-06-01 18:52:00,
2013-06-01 11:01:00,43.0,38.0,-100.00,ENE,67,3.0,6.0,82,0.00,,,0.00,175.000000,,2013-06-01 19:01:00,
2013-06-01 11:11:00,43.0,38.0,-100.00,ENE,67,3.0,6.0,82,0.00,,,0.00,175.000000,,2013-06-01 19:11:00,
2013-06-01 11:21:00,43.0,38.0,-100.00,ENE,67,3.0,6.0,82,0.00,,,0.00,175.000000,,2013-06-01 19:21:00,
2013-06-01 11:42:00,45.0,38.0,-100.00,East,93,3.0,7.0,77,0.00,,,-99.99,242.000000,,2013-06-01 19:42:00,
2013-06-01 11:52:00,45.0,38.0,-100.00,East,93,3.0,7.0,77,0.00,,,-99.99,242.000000,,2013-06-01 19:52:00,
2013-06-01 12:01:00,45.0,38.0,-100.00,East,93,3.0,7.0,77,0.00,,,-99.99,242.000000,,2013-06-01 20:01:00,
2013-06-01 12:11:00,45.0,38.0,-100.00,East,93,3.0,7.0,77,0.00,,,-99.99,242.000000,,2013-06-01 20:11:00,
2013-06-01 12:21:00,45.0,38.0,-100.00,East,93,3.0,7.0,77,0.00,,,-99.99,242.000000,,2013-06-01 20:21:00,
2013-06-01 12:42:00,46.0,40.0,-100.00,East,100,3.0,6.0,77,0.00,,,0.00,347.000000,,2013-06-01 20:42:00,
2013-06-01 12:52:00,46.0,40.0,-100.00,East,100,3.0,6.0,77,0.00,,,0.00,347.000000,,2013-06-01 20:52:00,
2013-06-01 13:01:00,46.0,40.0,-100.00,East,100,3.0,6.0,77,0.00,,,0.00,347.000000,,2013-06-01 21:01:00,
2013-06-01 13:11:00,46.0,40.0,-100.00,East,100,3.0,6.0,77,0.00,,,0.00,347.000000,,2013-06-01 21:11:00,
2013-06-01 13:21:00,46.0,40.0,-100.00,East,100,3.0,6.0,77,0.00,,,0.00,347.000000,,2013-06-01 21:21:00,
2013-06-01 13:43:00,46.0,40.0,-100.00,ENE,60,3.0,6.0,78,0.00,,,-99.99,292.000000,,2013-06-01 21:43:00,
2013-06-01 13:53:00,46.0,40.0,-100.00,ENE,60,3.0,6.0,78,0.00,,,-99.99,292.000000,,2013-06-01 21:53:00,
2013-06-01 14:03:00,46.0,40.0,-100.00,ENE,60,3.0,6.0,78,0.00,,,-99.99,292.000000,,2013-06-01 22:03:00,
2013-06-01 14:12:00,46.0,40.0,-100.00,ENE,60,3.0,6.0,78,0.00,,,-99.99,292.000000,,2013-06-01 22:12:00,
2013-06-01 14:22:00,46.0,40.0,-100.00,ENE,60,3.0,6.0,78,0.00,,,-99.99,292.000000,,2013-06-01 22:22:00,
2013-06-01 14:42:00,46.0,40.0,-100.00,ENE,64,4.0,6.0,79,0.00,,,-99.99,309.000000,,2013-06-01 22:42:00,
2013-06-01 14:53:00,46.0,40.0,-100.00,ENE,64,4.0,6.0,79,0.00,,,-99.99,309.000000,,2013-06-01 22:53:00,
2013-06-01 15:02:00,46.0,40.0,-100.00,ENE,64,4.0,6.0,79,0.00,,,-99.99,309.000000,,2013-06-01 23:02:00,
2013-06-01 15:11:00,46.0,40.0,-100.00,ENE,64,4.0,6.0,79,0.00,,,-99.99,309.000000,,2013-06-01 23:11:00,
2013-06-01 15:21:00,46.0,40.0,-100.00,ENE,64,4.0,6.0,79,0.00,,,-99.99,309.000000,,2013-06-01 23:21:00,
2013-06-01 15:42:00,46.0,41.0,-100.00,NE,52,3.0,6.0,80,0.00,,,-99.99,242.000000,,2013-06-01 23:42:00,
2013-06-01 15:52:00,46.0,41.0,-100.00,NE,52,3.0,6.0,80,0.00,,,-99.99,242.000000,,2013-06-01 23:52:00,
2013-06-01 16:02:00,46.0,41.0,-100.00,NE,52,3.0,6.0,80,0.00,,,-99.99,242.000000,,2013-06-02 00:02:00,
2013-06-01 16:11:00,46.0,41.0,-100.00,NE,52,3.0,6.0,80,0.00,,,-99.99,242.000000,,2013-06-02 00:11:00,
2013-06-01 16:21:00,46.0,41.0,-100.00,NE,52,3.0,6.0,80,0.00,,,-99.99,242.000000,,2013-06-02 00:21:00,
2013-06-01 16:42:00,45.0,40.0,-100.00,NE,54,3.0,5.0,85,0.00,,,-99.99,169.000000,,2013-06-02 00:42:00,
2013-06-01 16:52:00,45.0,40.0,-100.00,NE,54,3.0,5.0,85,0.00,,,-99.99,169.000000,,2013-06-02 00:52:00,
2013-06-01 17:01:00,45.0,40.0,-100.00,NE,54,3.0,5.0,85,0.00,,,-99.99,169.000000,,2013-06-02 01:01:00,
2013-06-01 17:11:00,45.0,40.0,-100.00,NE,54,3.0,5.0,85,0.00,,,-99.99,169.000000,,2013-06-02 01:11:00,
2013-06-01 17:21:00,45.0,40.0,-100.00,NE,54,3.0,5.0,85,0.00,,,-99.99,169.000000,,2013-06-02 01:21:00,
2013-06-01 17:42:00,45.0,43.0,-100.00,NE,35,1.0,5.0,94,0.01,,,0.00,144.000000,,2013-06-02 01:42:00,
2013-06-01 17:52:00,45.0,43.0,-100.00,NE,35,1.0,5.0,94,0.01,,,0.00,144.000000,,2013-06-02 01:52:00,
2013-06-01 18:01:00,45.0,43.0,-100.00,NE,35,1.0,5.0,94,0.01,,,0.00,144.000000,,2013-06-02 02:01:00,
2013-06-01 18:12:00,45.0,43.0,-100.00,NE,35,1.0,5.0,94,0.01,,,0.00,144.000000,,2013-06-02 02:12:00,
2013-06-01 18:21:00,45.0,43.0,-100.00,NE,35,1.0,5.0,94,0.01,,,0.00,144.000000,,2013-06-02 02:21:00,
2013-06-01 18:42:00,45.0,42.0,-100.00,NE,47,2.0,3.0,89,0.00,,,0.00,179.000000,,2013-06-02 02:42:00,
2013-06-01 18:52:00,45.0,42.0,-100.00,NE,47,2.0,3.0,89,0.00,,,0.00,179.000000,,2013-06-02 02:52:00,
2013-06-01 19:02:00,45.0,42.0,-100.00,NE,47,2.0,3.0,89,0.00,,,0.00,179.000000,,2013-06-02 03:02:00,
2013-06-01 19:11:00,45.0,42.0,-100.00,NE,47,2.0,3.0,89,0.00,,,0.00,179.000000,,2013-06-02 03:11:00,
2013-06-01 19:21:00,45.0,42.0,-100.00,NE,47,2.0,3.0,89,0.00,,,0.00,179.000000,,2013-06-02 03:21:00,
2013-06-01 19:43:00,45.0,42.0,-100.00,NE,44,1.0,4.0,89,-99.99,,,-99.99,80.000000,,2013-06-02 03:43:00,
2013-06-01 19:53:00,45.0,42.0,-100.00,NE,44,1.0,4.0,89,-99.99,,,-99.99,80.000000,,2013-06-02 03:53:00,
2013-06-01 20:02:00,45.0,42.0,-100.00,NE,44,1.0,4.0,89,-99.99,,,-99.99,80.000000,,2013-06-02 04:02:00,
2013-06-01 20:13:00,45.0,42.0,-100.00,NE,44,1.0,4.0,89,-99.99,,,-99.99,80.000000,,2013-06-02 04:13:00,
2013-06-01 20:23:00,45.0,42.0,-100.00,NE,44,1.0,4.0,89,-99.99,,,-99.99,80.000000,,2013-06-02 04:23:00,
2013-06-01 20:42:00,45.0,41.0,-100.00,NE,44,2.0,5.0,88,0.00,,,-99.99,69.000000,,2013-06-02 04:42:00,
2013-06-01 20:53:00,45.0,41.0,-100.00,NE,44,2.0,5.0,88,0.00,,,-99.99,69.000000,,2013-06-02 04:53:00,
2013-06-01 21:02:00,45.0,41.0,-100.00,NE,44,2.0,5.0,88,0.00,,,-99.99,69.000000,,2013-06-02 05:02:00,
2013-06-01 21:11:00,45.0,41.0,-100.00,NE,44,2.0,5.0,88,0.00,,,-99.99,69.000000,,2013-06-02 05:11:00,
2013-06-01 21:22:00,45.0,41.0,-100.00,NE,44,2.0,5.0,88,0.00,,,-99.99,69.000000,,2013-06-02 05:22:00,
2013-06-01 21:42:00,43.0,41.0,-100.00,NE,51,0.0,2.0,93,0.00,,,-99.99,17.000000,,2013-06-02 05:42:00,
2013-06-01 21:52:00,43.0,41.0,-100.00,NE,51,0.0,2.0,93,0.00,,,-99.99,17.000000,,2013-06-02 05:52:00,
2013-06-01 22:01:00,43.0,41.0,-100.00,NE,51,0.0,2.0,93,0.00,,,-99.99,17.000000,,2013-06-02 06:01:00,
2013-06-01 22:12:00,43.0,41.0,-100.00,NE,51,0.0,2.0,93,0.00,,,-99.99,17.000000,,2013-06-02 06:12:00,
2013-06-01 22:21:00,43.0,41.0,-100.00,NE,51,0.0,2.0,93,0.00,,,-99.99,17.000000,,2013-06-02 06:21:00,
2013-06-01 22:42:00,41.0,40.0,-100.00,NE,38,0.0,0.0,96,0.00,,,-99.99,2.000000,,2013-06-02 06:42:00,
2013-06-01 22:52:00,41.0,40.0,-100.00,NE,38,0.0,0.0,96,0.00,,,-99.99,2.000000,,2013-06-02 06:52:00,
2013-06-01 23:01:00,41.0,40.0,-100.00,NE,38,0.0,0.0,96,0.00,,,-99.99,2.000000,,2013-06-02 07:01:00,
2013-06-01 23:11:00,41.0,40.0,-100.00,NE,38,0.0,0.0,96,0.00,,,-99.99,2.000000,,2013-06-02 07:11:00,
2013-06-01 23:21:00,41.0,40.0,-100.00,NE,38,0.0,0.0,96,0.00,,,-99.99,2.000000,,2013-06-02 07:21:00,
2013-06-01 23:42:00,41.0,40.0,-100.00,North,4,0.0,0.0,97,0.00,,,-99.99,0.000000,,2013-06-02 07:42:00,
2013-06-01 23:52:00,41.0,40.0,-100.00,North,4,0.0,0.0,97,0.00,,,-99.99,0.000000,,2013-06-02 07:52:00,